Wind_Speed
15 15 16 14 16 16 8 2 1 0 1 1 2 1 1 1 3 2 4 6 3 2 3 4 5 8 4 1 5 1 2 6 5 4 3 4 26 35 26 29 34 32 31 27 24 22 20 21 20 20 19 18 18 17 15 15 15 15 15 15 14 14 13 13 13 12 11 10 10 9 9 8 7 7 7 6 5 4 4 3 3 3 3 2 2 2 1 1 2 3 3 3 4 4 4 4 3
14 14 14 15 17 11 1 0 1 1 1 0 1 0 1 2 3 3 5 6 5 6 7 7 5 4 3 3 0 1 3 2 1 3 2 18 30 26 27 33 35 34 31 28 25 23 20 20 21 21 20 19 19 18 17 16 15 15 15 15 14 14 13 13 13 11 10 9 9 9 8 7 7 7 7 6 4 3 3 1 2 2 1 1 1 1 1 0 1 2 2 2 3 3 3 3 2
12 12 15 15 11 4 1 2 1 1 2 1 0 1 2 3 3 4 5 5 3 8 9 8 7 5 4 2 3 3 2 3 6 6 7 24 24 21 32 34 35 35 31 29 26 24 22 20 22 22 20 20 19 19 18 17 16 16 17 16 14 13 13 13 12 10 9 8 9 8 7 7 7 7 7 6 5 4 3 3 3 2 1 1 1 2 1 1 1 1 1 1 2 1 2 2 1
11 10 14 12 3 1 2 2 2 2 2 2 1 2 1 3 4 6 6 5 1 6 9 8 7 8 7 6 4 3 4 3 8 5 8 19 21 29 36 34 35 33 31 30 27 25 23 21 22 22 21 20 19 19 18 17 17 16 18 17 15 12 12 13 11 11 10 9 9 9 9 8 8 7 7 6 6 6 5 5 5 3 2 2 2 2 2 2 3 2 1 1 1 1 2 2 2
10 9 10 6 1 1 2 2 2 1 2 2 3 3 2 0 4 7 8 7 5 4 10 10 5 6 7 6 4 4 6 7 8 7 12 20 28 37 36 36 35 33 32 29 27 26 24 23 22 22 21 21 21 21 19 18 17 17 18 18 16 14 13 13 11 11 10 10 10 10 10 9 8 7 7 6 5 6 5 4 4 4 3 3 3 3 3 3 4 3 3 3 2 3 3 2 3
9 7 5 3 1 1 1 2 1 2 1 1 2 2 2 2 2 3 9 12 8 7 8 11 7 7 5 2 1 4 8 10 11 12 18 26 34 38 36 37 35 33 32 29 28 26 25 24 23 23 22 22 22 21 19 18 18 17 17 17 17 16 14 13 12 12 12 11 10 10 9 8 8 6 6 6 5 5 4 3 3 3 2 2 2 3 2 3 3 3 4 3 4 4 4 4 4
8 5 2 2 0 0 2 2 2 1 2 4 3 3 5 3 3 2 6 10 7 4 5 9 8 8 4 3 4 5 10 12 13 17 24 33 37 38 38 37 34 33 31 30 29 27 26 23 23 23 21 21 21 21 19 19 19 19 19 18 17 16 14 12 13 13 12 11 10 9 8 7 6 5 5 6 6 5 4 3 2 2 2 2 2 2 2 2 2 3 3 3 4 4 4 4 5
7 3 1 2 0 2 2 2 1 1 4 4 3 4 4 3 3 2 3 2 5 2 7 8 9 10 4 3 4 6 14 17 18 26 33 37 39 38 38 36 34 33 31 32 30 27 25 23 23 22 21 20 20 21 20 20 19 19 19 18 17 15 14 13 13 13 11 10 10 9 8 7 5 6 6 5 4 4 3 2 2 2 3 3 3 3 3 3 3 3 3 4 4 5 5 5 5
5 1 0 2 2 2 2 1 1 3 4 3 2 2 2 3 3 2 0 2 4 3 9 7 8 9 5 5 6 6 15 25 28 34 38 38 39 39 37 36 35 34 32 32 30 28 25 23 23 22 21 20 21 21 20 19 18 17 17 16 15 15 14 13 12 12 11 10 10 9 8 7 6 7 6 5 4 3 3 2 2 2 2 2 3 3 4 4 4 4 4 4 5 5 6 6 6
1 1 1 2 3 3 2 2 2 3 3 1 1 0 1 2 5 1 2 3 4 5 10 7 8 10 9 7 6 6 19 33 35 33 36 38 37 36 35 35 36 35 34 32 31 28 26 23 23 22 21 20 21 20 19 18 17 17 16 16 15 15 14 13 12 11 11 11 10 9 8 7 6 7 6 6 5 4 4 3 2 3 3 3 4 4 5 5 5 5 5 5 5 6 6 7 6
1 1 1 2 3 3 1 3 4 3 1 2 0 1 2 1 4 3 3 3 2 7 10 8 9 9 9 6 4 14 29 36 34 31 34 36 33 32 33 34 35 35 35 34 31 29 27 24 23 21 20 20 20 19 19 18 17 17 17 17 15 15 13 13 12 11 12 11 10 9 8 7 7 6 6 6 6 5 4 4 4 4 4 4 5 6 5 6 5 5 5 6 6 6 6 6 6
0 1 3 3 2 2 1 4 5 2 2 2 1 1 1 1 3 1 2 3 2 7 7 5 7 7 8 6 4 18 30 31 30 32 32 31 30 32 32 32 33 34 34 33 31 30 27 25 23 21 20 21 20 20 20 19 18 18 18 17 16 15 14 13 12 11 12 11 11 10 8 7 6 6 6 6 5 5 4 4 4 3 3 3 4 5 5 6 6 6 6 6 6 6 6 6 6
2 1 3 2 0 1 1 3 3 2 1 2 1 2 2 1 2 1 2 2 3 7 5 4 7 7 7 6 7 14 22 27 31 32 31 30 31 32 31 31 33 33 33 33 32 30 28 26 24 22 21 21 21 20 20 19 19 18 18 17 16 16 15 14 12 12 12 11 11 9 8 7 6 5 5 5 4 4 4 3 3 2 1 1 2 4 5 6 6 7 6 6 6 6 6 6 6
3 2 4 2 1 2 2 2 3 2 1 2 2 2 1 0 1 1 2 2 5 3 1 4 9 10 7 7 7 8 16 28 33 31 31 32 33 32 30 30 32 32 32 32 31 30 28 27 25 23 22 21 21 20 19 19 18 19 18 17 17 16 15 14 13 12 11 11 10 9 8 7 6 5 5 4 3 3 3 3 2 2 2 2 3 4 5 6 7 7 7 6 6 5 6 6 6
3 2 3 2 1 2 1 3 3 3 1 3 3 2 1 1 1 1 1 3 3 2 1 5 6 7 8 10 8 8 19 31 34 31 32 35 35 32 30 30 30 30 30 30 30 30 29 28 26 25 23 23 22 21 20 20 19 20 18 17 17 16 15 14 13 12 11 10 9 9 8 8 7 5 4 3 2 1 1 1 2 2 2 3 3 4 5 6 7 7 7 6 6 6 6 6 6
3 2 3 2 1 2 2 3 2 2 2 2 3 2 2 2 2 1 0 1 1 3 2 2 1 4 9 9 10 17 27 32 33 32 33 36 32 29 28 28 28 28 28 28 29 29 29 28 28 26 25 24 23 22 22 21 20 19 18 17 17 16 15 14 13 12 11 10 9 9 8 8 6 5 3 2 1 0 1 1 1 2 2 2 3 3 4 5 6 6 6 6 6 6 6 6 6
2 3 2 2 2 3 3 4 4 2 2 2 3 3 2 2 1 2 3 1 1 3 3 1 2 5 8 9 18 29 31 32 33 31 32 31 26 24 24 24 25 24 24 26 27 28 28 28 28 28 26 25 24 23 23 23 20 18 17 17 16 16 15 14 13 12 11 10 9 9 8 7 6 5 3 2 1 0 0 1 2 2 2 2 3 2 2 3 3 4 5 5 5 5 6 6 6
3 1 2 2 2 3 4 5 5 3 3 5 5 5 5 5 2 2 2 2 1 3 3 3 1 4 10 18 29 33 30 33 33 30 28 25 23 22 20 22 24 23 24 25 26 27 28 29 29 28 27 27 26 25 24 23 21 19 18 17 16 15 15 14 13 12 12 11 10 9 8 7 6 4 3 1 0 1 1 1 2 2 3 3 3 3 3 4 4 4 4 4 4 5 7 7 5
2 1 1 2 3 3 3 5 5 4 4 6 7 6 5 6 4 1 1 1 1 4 3 4 2 6 15 22 29 31 30 32 30 29 27 24 23 22 20 22 22 23 24 26 27 28 29 29 29 29 29 28 27 26 25 23 21 20 19 18 17 16 15 15 14 12 12 12 11 10 9 7 6 4 3 2 1 1 2 2 2 3 3 4 4 4 4 4 4 5 4 4 5 6 8 8 6
2 2 1 3 3 3 2 5 6 5 7 9 8 6 4 5 4 2 3 4 2 4 1 1 3 8 16 19 23 28 28 28 27 27 27 25 25 24 22 22 23 25 27 28 28 29 29 29 30 29 29 29 27 26 24 23 21 20 19 18 16 16 15 15 14 13 13 12 12 11 10 8 7 5 4 3 3 2 2 3 4 4 4 4 5 5 5 5 5 6 6 7 7 8 9 9 8
2 3 2 4 4 4 3 5 5 6 9 9 7 6 5 4 2 2 6 6 1 3 3 2 4 7 14 16 19 23 23 22 24 25 25 25 25 25 25 25 27 29 29 28 27 28 30 30 30 29 29 28 26 25 24 22 21 20 18 17 16 15 15 14 14 14 13 13 13 13 11 9 8 7 6 5 5 5 4 3 4 5 5 5 5 7 7 6 6 6 8 8 9 10 10 9 10
2 4 4 6 5 4 5 5 5 6 8 8 8 7 6 5 1 2 6 6 3 5 4 4 4 5 8 12 15 19 19 16 19 23 23 24 24 24 25 26 27 27 28 28 27 28 29 29 29 28 28 27 25 24 23 21 20 19 19 17 17 15 14 13 13 13 13 13 13 13 13 11 10 9 8 7 7 8 6 4 4 6 5 4 6 8 7 6 6 7 8 9 10 10 10 9 9
2 3 4 7 6 6 6 6 6 6 8 8 8 7 6 5 2 4 5 4 4 5 5 4 3 4 7 7 7 12 15 14 16 20 23 24 25 25 25 25 25 26 28 29 29 28 28 28 28 28 27 26 24 22 20 21 20 19 18 17 17 16 14 14 13 13 12 12 11 12 13 12 10 10 10 9 9 9 8 5 4 5 5 5 6 7 6 6 6 7 8 8 9 9 11 10 9
3 2 5 7 6 8 8 7 7 7 9 8 7 8 8 7 4 5 5 3 5 7 5 4 3 4 7 6 5 5 7 11 15 22 26 26 27 29 28 28 28 29 29 29 29 28 28 27 27 28 26 25 24 21 20 20 20 19 18 18 17 15 14 14 13 11 11 11 10 10 11 11 11 11 11 11 10 11 12 7 5 5 5 7 6 6 6 6 6 7 7 7 8 9 11 10 8
4 4 7 5 4 7 7 7 7 6 6 6 7 8 8 8 7 6 5 2 7 9 6 4 4 4 5 5 4 4 2 3 7 15 23 26 30 30 30 30 29 29 29 30 30 29 28 26 26 28 27 26 25 23 21 20 20 19 19 20 17 15 15 14 12 11 10 11 11 10 10 11 12 13 12 12 10 11 13 11 9 7 7 8 7 7 7 6 6 6 6 7 8 9 9 9 7
7 6 7 6 4 7 8 7 7 6 3 5 7 7 6 7 6 4 4 5 8 8 7 5 4 3 3 4 2 2 2 3 4 3 9 17 26 27 27 29 29 30 31 31 32 31 30 28 27 28 27 27 27 26 24 21 21 19 20 20 17 16 16 14 13 13 12 12 13 12 11 11 11 12 12 13 12 9 10 12 13 9 9 9 8 7 6 6 7 7 6 7 10 10 9 8 7
7 7 7 8 7 6 8 7 7 5 4 7 9 7 6 6 4 3 4 8 9 9 7 5 5 4 3 2 1 1 2 2 3 2 0 5 16 23 25 28 29 32 32 32 33 33 32 31 30 28 27 27 28 29 26 23 22 21 20 19 18 18 17 15 16 16 15 14 14 14 14 13 12 11 11 12 13 10 8 11 13 11 11 11 10 9 7 8 9 7 6 8 10 12 10 8 8
8 10 8 5 6 5 6 7 6 5 4 8 9 5 5 5 3 4 7 9 10 10 8 6 6 5 4 3 1 0 1 2 1 1 1 3 9 16 21 27 31 31 33 34 34 35 34 34 33 31 29 29 29 30 28 25 24 22 20 19 19 18 17 17 17 17 18 17 16 16 16 16 15 14 13 13 12 12 11 11 11 11 11 11 11 10 10 11 11 9 7 9 9 10 9 8 9
7 9 9 4 5 4 5 6 6 6 4 8 8 5 4 5 5 7 9 9 9 10 9 7 6 5 5 4 3 1 1 4 4 3 6 8 9 11 13 21 30 30 32 35 35 35 36 35 35 34 32 31 31 31 29 26 25 24 22 21 20 19 19 20 20 19 19 19 18 18 18 18 18 17 17 16 15 14 14 14 14 14 14 13 12 12 12 11 12 12 10 10 8 9 10 10 10
6 4 6 5 5 2 7 6 7 6 4 8 7 4 4 5 6 10 10 10 10 9 8 8 7 6 5 5 4 3 2 3 5 7 10 11 12 13 10 14 24 29 29 32 33 35 37 36 35 35 34 34 33 31 30 28 26 26 25 23 22 22 22 23 24 23 22 22 21 20 19 20 20 19 18 19 19 18 16 16 16 16 17 15 13 14 13 11 12 14 12 10 8 10 12 12 12
6 3 3 3 5 4 7 5 8 5 3 6 6 4 5 4 7 10 10 11 11 9 8 8 7 6 5 4 5 4 5 6 8 10 12 14 15 16 14 12 17 29 30 29 33 36 36 35 34 34 36 35 34 32 31 30 28 27 28 27 25 23 23 24 25 26 25 24 23 22 22 22 22 21 20 21 21 20 19 18 16 15 15 15 14 14 15 15 14 15 14 11 10 11 13 14 13
4 3 1 1 3 4 6 5 9 7 2 4 6 3 4 4 8 8 10 12 11 10 8 8 8 7 6 5 5 5 5 7 9 12 14 16 17 17 17 15 14 25 33 31 33 35 34 34 34 34 37 37 35 35 33 31 31 30 30 29 27 24 23 24 25 26 25 23 23 23 24 24 24 24 24 23 24 23 21 20 17 14 13 15 17 17 17 16 16 17 16 11 9 11 12 14 14
3 4 3 3 3 3 3 4 8 8 3 3 4 4 3 3 7 8 10 12 11 10 8 8 9 8 7 5 5 5 4 5 7 11 16 17 18 17 17 18 16 18 29 34 34 34 32 33 35 34 36 39 38 37 36 33 33 32 31 30 28 26 24 24 24 25 26 24 22 22 23 24 25 26 25 25 25 26 24 22 19 15 12 14 17 19 17 14 15 19 18 11 8 9 11 13 14
4 2 3 4 5 5 3 3 6 7 6 6 4 6 6 5 8 9 11 12 10 10 9 9 8 7 7 5 5 5 4 5 5 10 17 19 19 17 18 19 18 15 20 31 35 35 35 34 35 35 35 39 39 38 38 36 34 33 32 31 30 28 26 24 23 24 27 26 25 23 22 23 25 26 27 27 27 27 26 24 20 17 14 13 16 19 19 14 15 19 17 11 9 10 11 13 12
6 6 5 3 4 5 6 5 7 9 8 7 6 6 7 6 9 10 10 11 10 10 9 8 8 7 7 5 5 5 4 6 7 11 17 17 15 14 18 18 17 15 14 24 34 35 36 36 35 35 34 37 40 39 39 37 35 34 33 32 31 29 28 26 24 25 27 28 27 25 23 23 25 27 27 28 28 28 28 26 22 18 16 13 14 17 19 17 15 18 17 11 10 11 11 11 11
10 11 8 8 6 4 7 5 8 13 9 6 9 7 7 9 10 10 9 9 9 8 7 6 7 7 6 6 6 6 6 7 9 13 14 15 13 9 10 11 10 10 8 17 29 30 31 33 33 33 35 37 38 37 36 35 33 33 32 31 30 31 30 28 27 27 29 29 29 28 26 25 27 28 28 28 27 27 28 27 23 19 17 15 15 16 18 16 13 16 17 13 13 13 13 12 11
8 11 9 10 8 6 9 6 7 13 9 7 10 7 9 12 11 11 10 9 8 8 8 7 8 7 7 7 7 7 8 7 9 13 15 15 13 9 9 10 8 8 8 12 18 19 21 27 31 32 33 36 36 34 33 33 32 32 30 30 31 33 32 30 29 29 30 30 31 31 29 28 29 28 28 29 27 25 27 27 24 21 18 18 17 17 16 16 13 15 17 14 14 15 14 13 11
6 11 9 8 8 8 9 8 8 11 8 6 9 9 10 12 11 11 10 10 10 11 12 10 10 10 9 9 9 9 7 6 7 10 13 13 11 9 8 8 8 7 7 8 10 11 12 16 25 29 29 32 35 35 35 34 34 34 33 33 33 33 33 32 31 30 29 28 29 30 29 29 27 23 22 24 24 24 25 26 25 22 20 19 19 18 17 17 15 15 17 16 14 14 13 12 10
3 7 8 7 6 4 5 5 7 9 5 5 9 11 10 10 11 11 12 12 11 12 14 13 12 11 9 9 9 8 7 6 7 7 8 10 8 9 9 7 7 7 6 7 8 7 7 8 13 19 21 26 33 35 35 35 35 35 32 32 31 30 29 30 31 30 29 29 29 29 29 28 26 23 20 20 20 22 24 25 25 24 22 21 21 20 19 19 18 16 17 19 16 13 13 12 11
1 6 7 6 7 5 3 5 8 9 4 5 9 7 5 6 6 7 10 10 9 11 13 12 12 11 11 11 8 8 8 7 7 6 6 7 7 9 10 8 7 7 7 7 8 8 7 6 8 11 11 15 25 32 34 33 33 32 29 28 27 26 26 26 28 29 29 30 31 31 31 30 28 27 24 21 20 20 21 22 24 24 24 23 22 22 21 21 21 17 16 19 18 15 14 13 13
2 4 7 7 11 9 7 5 7 7 2 6 9 5 1 6 6 7 7 5 6 10 11 9 10 10 10 9 8 8 9 8 7 7 6 6 8 9 10 9 8 9 10 9 8 7 7 7 6 8 8 9 14 24 29 30 29 27 25 24 22 22 23 23 24 26 28 29 29 30 30 29 27 27 25 23 21 21 21 22 23 24 25 25 24 24 23 22 22 19 16 19 20 18 17 16 16
4 1 7 12 16 10 6 9 9 6 2 6 9 6 2 4 6 9 5 4 7 8 10 11 10 8 8 8 8 8 8 8 8 8 7 7 9 11 11 11 11 11 12 11 9 7 7 7 6 6 8 9 10 15 21 25 25 24 23 23 22 20 21 23 25 26 27 27 27 27 26 26 25 25 24 24 24 24 25 25 23 24 25 26 26 25 24 23 23 21 18 19 21 21 20 17 18
3 3 6 10 14 10 9 12 10 6 4 8 9 6 4 4 5 9 7 8 10 8 9 11 9 9 8 9 9 9 8 8 8 8 8 8 9 11 12 13 15 14 13 12 11 10 9 9 8 8 8 10 12 13 16 20 22 23 23 24 25 24 23 25 28 27 27 27 26 26 26 26 26 26 26 26 27 27 28 27 26 25 26 28 28 27 25 24 25 24 21 20 22 23 22 19 19
3 6 4 7 10 10 11 11 7 4 3 5 5 3 5 5 5 8 9 11 10 8 9 9 9 10 10 10 10 10 10 9 8 8 8 9 10 12 13 16 18 17 15 13 12 12 12 11 11 12 11 12 13 14 16 18 20 22 23 24 25 26 26 27 27 27 27 28 28 28 28 29 29 28 28 28 29 29 29 29 27 26 26 28 29 28 27 25 25 26 24 22 22 25 24 22 22
6 7 4 5 7 8 11 10 6 3 4 5 5 2 5 3 3 5 9 10 10 11 12 10 10 11 11 11 11 11 11 10 9 9 8 9 12 15 17 18 20 19 17 15 15 14 14 15 14 14 15 15 15 16 17 18 19 20 22 23 24 25 26 27 27 27 27 27 27 28 29 29 30 30 30 30 29 29 29 28 27 27 27 28 30 30 28 26 26 26 26 24 23 26 27 24 24
6 5 2 2 1 2 6 7 5 3 3 6 9 6 4 2 2 5 7 9 11 12 11 10 10 11 11 11 11 10 9 9 9 9 8 9 14 18 19 19 20 20 18 18 17 17 17 17 17 17 17 17 18 19 19 19 20 21 22 23 24 25 26 26 26 26 26 26 26 27 27 28 29 30 31 30 29 29 29 28 28 29 29 29 30 30 30 28 27 27 27 25 24 26 28 27 26
3 1 2 5 4 3 3 2 4 3 2 6 12 10 6 2 4 6 8 11 14 12 8 9 9 9 10 9 9 9 7 8 8 7 7 10 14 17 17 18 18 19 19 18 18 18 17 16 17 19 19 18 18 19 20 22 23 24 25 25 26 27 26 25 24 25 26 25 26 27 26 27 28 28 29 29 30 30 30 30 30 30 30 29 30 30 30 29 29 28 28 27 25 25 27 28 28
3 4 4 4 4 5 5 4 3 3 5 6 10 13 9 5 5 9 11 9 11 13 10 11 11 10 10 9 8 8 7 7 7 7 6 7 9 12 14 15 15 17 18 17 17 16 14 13 15 18 19 18 17 17 19 23 25 26 27 27 27 27 25 24 24 25 26 25 26 27 26 25 26 27 28 28 30 31 31 31 31 31 30 30 31 31 30 30 29 28 28 28 27 27 27 27 29
5 4 5 4 2 3 2 3 1 3 7 5 8 12 6 4 5 10 13 8 9 13 11 12 13 11 11 9 8 7 7 7 7 6 6 6 6 8 11 13 12 14 15 15 15 13 12 12 13 15 16 15 14 14 15 19 23 26 26 26 26 26 25 25 26 27 28 27 27 27 26 26 26 26 27 28 30 30 30 30 31 31 31 31 31 30 30 29 29 29 28 28 28 28 28 27 29
3 1 3 4 1 1 1 4 1 1 6 4 5 7 1 4 4 6 13 9 9 11 9 11 13 12 12 9 8 7 7 7 7 6 7 6 6 8 11 12 12 14 14 13 12 11 11 11 11 12 12 11 10 9 10 13 19 22 24 25 25 25 25 26 27 28 29 29 28 28 28 28 27 28 29 30 30 29 29 29 30 31 32 31 30 30 29 29 29 29 29 28 28 29 29 27 28
1 3 5 4 3 3 3 3 2 3 5 4 3 3 1 2 4 4 8 8 8 9 8 8 10 9 9 7 7 8 7 7 6 6 7 6 6 8 10 11 13 13 12 10 9 9 10 10 10 10 9 7 6 5 5 7 12 16 18 20 20 21 22 24 26 28 29 30 29 29 29 30 30 30 31 31 31 29 28 29 30 32 33 33 32 31 31 31 31 32 31 29 29 30 30 29 28
3 1 5 1 4 5 2 3 4 4 1 4 3 1 1 3 4 4 7 9 8 9 8 8 8 7 7 6 7 8 8 6 6 6 6 5 6 8 10 11 11 8 5 4 3 3 3 3 3 4 4 5 5 6 7 7 7 9 11 12 13 14 16 19 22 24 26 28 30 30 30 30 31 32 32 32 31 30 30 30 30 32 33 33 34 33 33 33 33 33 32 31 30 30 30 29 28
1 2 2 4 5 7 3 2 1 3 3 2 1 2 1 1 4 5 7 10 7 8 8 8 8 7 8 7 6 8 7 6 6 6 6 6 7 10 11 10 8 5 7 8 9 8 7 6 5 4 5 6 7 8 8 9 9 10 12 14 15 16 17 18 19 20 21 22 25 26 26 27 27 29 30 30 30 30 30 30 30 31 32 33 34 34 33 33 33 33 33 32 31 31 30 29 28
3 1 4 3 1 4 3 1 3 5 3 2 0 4 3 2 1 2 5 9 7 7 8 8 7 7 8 6 7 7 7 6 6 7 7 6 7 8 8 5 5 9 12 12 12 10 9 8 7 7 7 8 8 9 10 12 13 14 16 17 19 19 19 20 21 21 21 21 22 22 23 24 24 25 27 27 28 29 30 30 31 32 32 32 33 34 33 33 33 33 33 32 33 32 31 31 30
4 3 4 2 2 1 2 1 0 1 1 0 3 1 2 3 3 4 6 9 8 7 8 9 9 9 7 6 7 7 6 6 6 6 5 3 4 5 7 10 12 12 12 11 10 9 8 8 8 8 9 10 12 13 14 15 16 17 19 20 20 20 20 21 23 25 26 25 24 23 23 23 23 23 24 25 27 29 29 29 30 31 32 32 33 33 33 33 33 33 33 32 32 32 31 31 31
3 3 2 2 3 3 1 0 2 2 1 1 2 2 2 3 5 8 10 10 11 9 8 9 10 9 6 6 7 7 6 6 5 5 4 4 6 9 12 14 12 11 10 9 8 8 8 8 9 11 12 15 16 17 17 18 18 19 21 22 23 23 23 23 24 24 26 26 26 25 24 24 24 24 23 23 25 27 28 28 28 30 30 30 31 32 33 33 33 33 33 33 32 32 31 31 31
3 4 3 2 1 1 1 1 1 3 2 3 3 2 4 5 4 7 10 10 10 11 9 8 8 7 6 6 7 7 6 6 5 5 5 5 7 9 12 12 11 10 8 7 7 7 8 10 12 14 15 18 19 19 19 19 20 21 22 23 24 24 24 24 24 23 25 26 27 26 25 25 25 25 24 23 24 25 26 27 28 31 32 31 31 31 31 32 32 33 33 32 32 31 31 32 32
6 4 3 3 2 2 3 2 4 1 4 4 4 2 5 5 2 5 8 8 8 9 9 7 6 7 7 5 7 7 7 6 6 6 5 5 6 8 10 9 8 7 5 5 5 6 9 11 13 14 15 16 17 18 17 18 20 22 23 23 23 24 24 24 24 24 24 26 27 27 26 26 26 26 26 25 24 25 26 27 29 32 34 33 30 28 28 27 27 31 32 31 31 31 31 33 32
Wind_Direction
135 137 142 143 145 142 135 137 100 101 120 124 168 221 254 233 277 259 147 146 130 230 175 119 130 141 150 176 175 173 72 163 172 152 204 157 145 152 156 156 157 157 157 156 158 161 164 164 159 159 159 159 157 155 154 147 144 147 147 148 147 145 145 143 141 139 140 137 135 134 132 132 130 131 131 129 129 139 145 141 140 131 113 107 134 142 131 105 107 113 108 101 104 113 116 123 141
145 147 147 141 140 138 110 208 113 96 89 334 216 115 312 311 263 236 181 163 134 167 162 135 133 183 213 36 238 208 60 358 122 129 106 132 138 148 157 158 158 158 158 157 160 163 164 164 162 162 162 161 158 155 153 150 150 150 149 150 150 150 147 143 142 142 140 138 137 134 136 138 139 139 137 137 135 140 150 153 161 155 131 129 160 172 190 40 108 119 118 107 94 97 108 109 116
157 155 148 140 134 140 59 59 71 113 114 202 255 77 305 292 251 260 214 195 122 139 145 133 131 205 211 73 277 207 122 11 109 113 115 137 136 150 159 158 159 158 158 159 162 164 164 165 162 161 161 161 159 157 157 157 157 152 152 153 154 154 148 143 142 143 142 145 143 140 144 143 144 142 139 142 148 155 165 181 196 195 193 197 208 207 191 257 252 151 141 114 87 77 106 115 129
157 161 158 150 118 121 113 91 160 151 135 176 109 101 282 303 281 288 258 236 277 138 144 142 148 192 179 159 210 121 117 114 126 131 133 150 149 152 158 158 159 158 158 161 163 164 164 164 161 159 159 160 160 160 160 160 160 156 156 156 158 157 149 146 148 152 154 158 153 149 148 144 145 142 144 153 166 175 181 198 208 203 202 207 215 217 198 230 242 227 236 225 171 158 148 148 164
156 163 170 158 76 148 129 123 154 123 163 176 139 133 127 335 314 317 303 287 268 203 169 169 170 168 153 164 202 125 132 127 136 151 133 146 151 152 157 158 158 158 159 162 164 165 164 163 160 159 161 162 164 164 163 163 162 160 160 160 160 161 159 158 160 160 158 158 153 148 145 146 150 152 160 167 170 175 181 195 200 192 200 204 201 210 215 229 233 229 225 222 217 204 200 195 188
147 140 151 126 113 180 89 98 87 99 184 316 120 119 105 130 337 349 326 310 263 228 180 165 149 123 129 131 82 125 139 128 137 147 134 141 150 153 157 158 158 159 161 164 165 164 163 162 160 160 161 163 166 165 164 164 164 164 164 163 165 168 169 166 162 156 151 148 146 143 145 153 157 161 167 161 152 156 163 163 176 186 192 195 194 200 209 228 233 230 223 227 232 225 228 227 224
148 134 103 84 226 62 88 108 114 117 48 15 62 52 21 9 352 53 2 322 270 213 142 138 131 111 109 97 81 124 134 128 134 141 140 144 151 155 157 158 157 159 161 164 164 163 162 162 162 161 160 162 163 163 165 167 167 168 167 167 170 173 172 166 156 150 148 145 145 147 155 163 164 164 153 145 144 145 149 159 187 205 204 209 216 205 202 222 236 241 236 242 249 248 245 239 241
168 157 99 107 43 39 85 84 100 72 57 53 67 69 44 24 355 11 67 326 272 148 109 120 117 102 105 93 90 138 125 123 131 138 143 146 153 156 157 157 156 158 162 164 163 161 162 163 163 162 164 165 164 164 167 167 167 167 166 166 169 172 170 163 156 152 153 153 153 157 166 172 174 166 148 143 147 145 148 172 194 209 213 209 217 220 225 226 237 255 261 267 275 277 272 265 259
175 150 61 96 76 54 81 32 59 61 52 55 62 102 114 116 86 339 97 197 250 111 103 124 120 109 124 99 102 136 115 122 133 138 146 151 155 155 156 158 158 160 162 164 161 160 163 166 165 166 169 170 167 166 166 165 166 166 165 167 169 172 169 164 161 158 159 161 162 167 177 180 179 167 155 161 165 164 169 183 197 211 212 223 242 241 238 229 229 246 262 270 276 282 282 283 280
155 131 168 85 84 58 49 28 49 58 28 18 89 128 311 108 107 156 238 219 241 94 94 103 105 114 126 113 115 129 119 129 134 138 149 154 154 154 156 161 162 161 163 164 160 161 165 167 169 170 172 171 167 166 167 168 169 169 168 171 174 172 170 168 166 165 165 167 170 176 184 184 179 169 165 173 173 184 192 196 213 223 224 237 240 235 237 231 228 239 255 262 267 275 278 280 281
356 313 114 65 67 53 43 53 58 62 303 255 98 345 317 55 113 179 234 265 279 96 101 95 96 111 113 104 113 125 126 132 136 139 149 152 152 154 157 162 163 163 164 163 161 163 166 168 171 172 172 170 168 169 171 171 171 171 172 174 175 172 172 172 171 173 173 175 179 183 187 181 177 173 174 178 177 189 196 200 214 228 229 228 224 222 228 229 231 239 249 258 268 277 284 288 290
68 313 71 75 66 61 81 68 75 118 236 234 213 257 243 146 125 225 295 316 338 91 90 96 117 119 105 103 119 128 129 135 140 144 148 149 153 157 158 160 164 165 164 163 162 164 167 170 172 174 174 171 171 173 173 173 174 174 174 177 175 174 176 176 177 181 182 184 184 183 185 180 177 174 175 179 182 191 197 210 215 223 222 214 219 220 223 228 233 238 244 255 269 278 287 297 303
164 171 85 79 192 89 80 81 118 180 259 239 215 249 255 167 144 245 287 308 36 77 68 102 126 112 104 116 127 134 135 140 145 146 148 149 154 157 157 160 165 165 163 163 162 164 168 171 173 175 176 173 175 177 176 176 176 176 177 178 177 177 179 180 183 187 188 187 184 179 176 172 169 167 169 174 180 191 200 213 214 221 247 229 230 232 235 239 240 241 246 254 264 275 285 295 303
160 152 102 109 197 113 104 135 173 170 278 235 218 255 254 250 153 155 249 30 52 69 55 99 111 102 106 131 135 143 143 146 148 146 147 150 154 156 158 162 165 165 165 165 163 165 169 172 175 175 176 176 177 179 178 178 179 179 180 181 180 180 181 183 187 189 189 186 182 175 171 165 160 158 161 163 164 180 197 215 233 254 282 285 256 250 248 249 248 247 248 252 261 272 282 292 302
148 125 101 118 137 92 188 194 173 143 205 209 191 234 135 42 324 105 161 62 66 267 45 93 107 113 139 153 152 158 149 148 148 144 146 151 154 157 160 162 165 166 166 167 166 168 171 174 176 176 178 179 180 182 180 181 184 183 183 183 182 182 183 185 187 187 186 184 180 174 171 166 157 150 152 159 159 168 210 229 260 279 296 297 275 262 258 253 248 248 249 253 259 266 276 286 300
137 106 89 97 132 145 191 173 155 136 231 203 156 205 97 37 324 47 321 55 292 316 40 107 49 126 151 159 151 152 150 148 148 142 143 148 150 152 156 159 162 165 166 169 169 171 174 175 178 179 180 181 182 184 183 184 186 186 185 186 184 184 187 187 186 186 184 183 182 177 174 171 162 153 154 165 168 196 256 264 286 304 317 312 305 290 273 261 249 246 250 255 259 261 267 277 288
88 74 84 95 161 174 169 166 177 170 193 180 161 196 131 85 351 324 304 293 293 355 23 291 321 130 146 153 149 151 149 147 146 139 138 142 141 143 149 154 158 163 169 173 173 175 177 178 180 181 181 182 185 187 188 187 186 186 188 188 188 190 192 190 186 185 185 184 183 180 176 174 169 165 166 171 180 336 292 296 302 315 326 326 328 320 306 296 280 268 264 264 262 260 260 270 278
84 72 100 119 178 181 182 177 172 135 148 175 183 197 152 130 158 290 328 15 13 37 11 334 332 137 138 145 149 153 150 147 147 139 138 142 141 145 149 155 159 164 172 176 177 179 180 182 183 183 183 184 188 191 191 190 185 187 191 189 190 193 196 195 191 187 186 183 180 177 173 173 171 168 172 175 149 33 23 336 317 320 323 326 327 321 314 315 321 315 301 286 269 264 263 266 271
136 167 100 176 193 174 180 152 144 137 147 160 170 187 156 142 158 203 83 68 63 82 23 350 48 114 132 145 152 156 152 148 151 144 144 148 148 153 155 159 164 167 173 177 181 183 183 185 186 185 184 186 191 193 193 191 185 187 193 190 190 193 196 199 195 190 188 183 178 174 172 175 178 177 173 192 207 6 356 337 324 322 318 320 322 316 313 318 327 325 320 306 287 278 272 270 270
173 142 102 237 179 134 174 143 147 147 136 143 154 167 149 147 151 148 129 117 111 126 143 18 91 127 139 149 154 158 156 152 154 150 150 154 154 157 159 163 167 171 177 180 182 186 188 188 188 189 187 188 192 194 194 193 189 189 194 193 193 193 195 199 198 196 193 189 181 175 175 176 182 186 182 210 239 272 315 311 307 312 314 316 318 316 314 317 320 318 316 311 304 297 286 278 272
173 158 177 217 151 126 189 159 142 132 131 139 142 141 146 162 149 143 139 123 153 210 220 196 148 142 144 152 155 160 162 157 155 154 156 158 158 160 164 168 172 176 177 179 182 187 191 191 190 191 190 190 192 194 195 195 193 192 195 195 195 195 197 200 201 201 200 198 189 178 177 179 187 195 197 217 236 256 274 281 296 297 301 316 322 317 317 314 310 317 319 315 316 315 304 281 265
184 205 174 172 153 137 179 160 140 134 126 130 137 144 150 153 158 191 158 146 196 207 214 207 169 138 134 147 155 161 166 162 157 160 161 160 161 163 167 171 172 175 174 177 183 188 193 194 192 192 191 193 193 194 196 196 196 195 196 197 197 197 198 202 207 208 206 204 196 184 183 186 194 202 209 224 232 246 254 258 289 280 275 307 324 315 316 315 312 321 319 316 319 322 322 296 260
177 227 168 165 164 138 159 157 152 147 130 140 152 143 134 142 180 204 187 191 197 182 183 186 154 112 107 107 136 161 171 171 162 164 165 163 164 165 167 171 171 172 174 179 184 189 194 196 194 192 191 193 194 195 198 198 199 198 197 199 200 199 197 200 204 206 204 202 196 190 191 194 199 207 218 228 233 245 249 248 268 256 263 301 315 306 307 312 313 321 316 313 320 323 331 318 268
172 202 180 178 162 140 156 154 157 161 147 158 155 132 144 167 173 182 211 231 172 166 166 152 101 85 98 88 88 128 169 177 169 170 171 166 168 170 169 171 173 174 176 179 182 188 195 197 196 193 192 194 196 198 203 204 204 203 202 203 203 201 199 199 198 198 200 204 202 197 201 206 209 216 222 227 237 247 248 244 226 232 282 308 302 292 294 300 300 311 309 303 318 329 337 331 282
209 202 176 173 155 145 149 141 153 168 156 157 148 148 170 181 161 166 205 191 149 150 134 118 93 73 85 90 93 88 100 157 155 168 175 172 171 172 172 172 173 175 178 179 181 188 194 197 198 197 196 196 199 203 206 210 210 208 207 205 202 201 203 203 200 202 207 214 216 213 214 219 222 225 225 227 238 250 250 242 225 236 290 297 284 281 282 284 283 299 306 294 307 319 330 340 311
209 187 158 156 158 146 135 136 161 169 170 157 149 165 189 183 154 147 183 149 136 132 118 119 113 102 95 83 87 93 90 86 65 115 177 180 174 171 173 173 173 177 181 181 182 188 192 195 198 200 200 197 200 206 209 213 214 210 207 206 204 205 210 211 210 214 216 221 225 225 226 232 235 232 232 233 238 249 246 232 226 242 274 275 270 271 269 272 277 289 292 288 300 303 305 323 324
175 152 137 151 157 143 134 147 175 172 182 175 161 178 195 185 152 126 173 147 129 125 126 140 138 145 150 112 89 76 70 92 77 63 33 195 183 176 174 174 175 180 183 181 184 189 191 194 197 200 201 199 200 206 211 215 216 211 209 209 210 214 218 219 222 225 226 228 231 233 235 239 243 239 239 238 237 244 240 225 229 246 259 261 260 259 257 265 273 273 268 281 294 295 293 296 305
141 127 104 131 136 115 131 149 178 178 190 185 165 158 171 179 174 167 169 150 134 134 140 153 158 168 166 163 204 88 28 287 293 128 213 239 200 186 180 180 179 181 183 184 186 189 190 193 197 200 201 200 201 205 210 216 217 215 215 216 218 223 226 227 229 231 232 233 236 239 240 241 245 247 245 240 239 247 247 238 240 247 248 249 255 258 261 265 264 252 259 284 287 284 284 283 288
125 117 106 120 105 107 162 157 181 190 187 179 146 97 149 188 196 177 161 150 138 138 148 159 166 173 174 178 191 180 279 277 280 239 225 234 224 208 194 189 185 184 186 187 187 188 190 193 197 199 200 201 203 205 208 213 218 218 217 219 222 225 228 229 230 232 233 234 238 242 241 241 245 250 249 242 240 246 249 248 252 254 252 254 260 263 267 265 250 243 262 282 280 280 281 283 286
127 105 111 129 99 153 201 172 176 187 179 172 136 97 205 217 182 170 155 147 140 141 157 163 168 175 181 185 179 193 201 237 250 240 235 236 239 236 228 206 194 190 191 188 187 189 192 193 195 198 200 202 204 206 207 209 215 217 217 219 221 223 225 227 229 230 230 230 235 239 241 243 246 250 248 243 243 245 248 252 257 261 259 259 259 261 271 268 245 245 259 268 270 279 282 286 291
134 83 40 119 121 205 217 185 164 171 195 168 113 104 213 215 174 169 154 150 147 155 168 163 171 176 176 186 179 195 210 210 225 234 236 235 241 245 242 236 207 195 194 193 191 192 193 192 193 196 200 203 205 206 207 208 212 215 217 219 221 224 226 229 231 231 231 231 233 235 238 242 247 250 248 246 247 247 249 254 260 265 261 255 250 257 272 276 264 256 258 260 263 272 278 284 292
134 119 345 125 125 203 219 209 173 167 206 158 102 105 210 208 187 173 154 156 154 162 173 164 171 177 175 187 187 198 219 212 216 227 233 233 238 246 243 247 235 201 194 196 196 195 195 194 194 196 199 203 205 206 207 209 211 214 218 220 221 222 226 231 234 234 236 237 237 236 237 239 244 248 249 248 248 248 249 252 260 266 262 256 251 255 267 275 274 262 253 256 258 262 273 280 287
199 163 174 178 144 182 211 230 195 167 153 179 119 134 191 214 197 178 162 164 161 165 170 166 171 178 178 188 198 196 213 216 219 225 227 226 228 235 236 239 248 220 199 199 200 197 196 196 197 198 200 204 206 207 207 209 211 214 217 219 220 221 223 229 234 235 236 239 240 240 241 242 244 247 249 248 248 249 249 250 259 263 263 260 254 255 262 271 275 258 246 246 247 253 271 280 283
212 169 130 186 181 167 176 212 204 163 156 194 153 153 190 190 180 181 177 170 164 171 171 170 175 180 182 186 201 198 208 215 219 225 220 218 221 230 237 239 244 234 208 203 201 198 197 198 199 201 203 205 206 208 207 208 211 214 217 219 220 221 222 228 234 235 235 237 239 243 246 246 247 249 250 250 249 250 249 250 257 260 261 264 256 256 258 267 273 253 241 245 248 251 265 274 275
181 180 137 176 190 176 197 194 178 164 165 189 170 180 201 177 173 183 186 174 167 177 174 174 181 183 186 189 199 202 214 223 224 223 216 215 223 232 239 241 236 230 219 206 201 198 198 199 201 202 204 206 207 209 208 208 209 212 216 217 219 221 222 228 234 235 236 237 238 244 248 248 250 252 252 251 250 250 248 247 252 256 259 264 263 261 256 262 270 248 239 248 249 250 259 264 268
183 179 157 162 180 201 216 204 169 162 155 188 187 189 184 172 183 186 186 179 170 178 176 175 184 187 192 194 203 203 211 231 230 221 214 214 213 196 199 205 203 203 196 194 195 197 201 202 202 203 206 207 207 207 206 206 208 210 212 214 217 220 222 228 234 235 236 237 239 243 247 248 251 253 253 252 249 248 246 245 248 251 255 261 264 266 255 256 267 247 237 245 247 249 254 257 263
174 161 157 159 173 205 216 211 182 162 149 195 196 184 179 178 188 185 178 175 170 176 180 183 183 186 195 197 204 204 209 229 232 220 212 203 190 164 159 160 157 157 147 166 180 188 201 206 206 205 206 207 205 203 203 204 206 208 210 212 216 219 223 229 232 234 237 239 241 244 248 250 252 255 256 254 248 243 242 243 245 246 252 258 263 269 259 249 257 249 239 243 250 252 253 255 259
127 146 156 155 178 208 212 200 179 166 157 193 186 175 187 186 187 186 173 172 180 182 183 188 185 183 192 195 200 203 206 219 223 217 208 193 174 167 175 167 161 157 148 161 168 165 176 196 207 208 206 206 205 204 203 204 207 209 211 213 216 220 224 227 230 233 236 240 243 246 250 251 252 254 253 249 244 240 240 242 244 245 249 256 261 267 262 249 249 251 247 247 250 252 252 252 253
90 134 140 158 194 209 229 209 170 168 169 186 177 176 193 191 183 185 178 178 186 187 185 185 181 178 187 191 190 193 194 200 203 203 206 201 180 173 184 186 184 177 163 168 180 178 160 163 188 195 201 206 208 207 205 206 209 211 212 214 216 219 223 226 229 233 236 240 244 248 252 254 253 251 246 243 240 239 241 243 246 248 249 253 258 262 262 253 246 251 253 250 248 246 246 247 246
230 133 130 173 200 174 216 226 178 177 176 162 166 164 186 183 174 190 192 187 185 189 189 183 180 179 185 188 181 183 187 191 199 200 208 212 195 180 188 198 198 195 189 173 174 188 188 178 174 177 185 200 208 210 209 209 211 213 215 218 220 223 228 232 234 237 240 243 246 248 251 254 254 251 247 243 240 239 242 246 250 251 251 252 254 258 262 254 244 248 255 249 243 238 240 245 247
286 139 139 173 197 193 196 185 159 169 147 136 136 96 156 177 169 194 205 203 191 187 185 182 188 186 180 180 178 183 187 187 194 201 204 205 201 197 198 203 206 209 209 195 181 182 186 190 190 191 191 190 201 208 211 213 213 214 217 221 226 230 233 236 237 238 240 241 243 246 247 247 246 244 243 243 245 248 251 254 255 254 254 253 252 255 260 255 244 245 253 248 239 236 242 250 256
329 190 169 177 190 197 172 137 134 152 170 172 148 108 220 211 182 191 189 189 198 189 182 185 190 187 174 174 183 189 190 192 196 199 200 200 205 206 204 205 208 215 218 211 201 198 199 204 212 215 213 210 205 203 208 212 214 215 216 218 221 225 228 231 232 234 235 236 238 241 240 239 238 239 242 246 251 257 260 260 259 258 255 252 250 252 256 256 248 245 251 248 241 241 245 250 256
332 238 189 175 180 180 160 144 144 165 192 194 175 134 171 214 201 196 180 180 197 194 188 190 185 182 181 180 185 189 192 198 200 200 199 200 205 205 205 208 210 216 221 217 212 217 224 229 234 233 224 221 219 212 209 209 212 215 216 218 220 222 227 231 235 238 241 243 246 247 245 242 243 245 249 252 256 261 263 261 260 260 256 251 249 250 253 254 250 248 251 251 250 249 246 246 251
250 242 182 148 157 159 160 157 163 185 154 173 194 109 138 194 210 192 176 177 195 201 197 199 191 186 188 185 185 189 192 195 196 199 200 200 202 201 205 210 212 216 220 217 215 221 229 235 238 240 238 235 232 228 225 221 221 223 224 226 229 232 238 244 249 253 254 255 255 256 255 252 251 252 255 258 260 262 261 259 258 259 255 250 247 247 250 252 251 251 252 255 257 251 246 246 248
228 233 184 149 155 155 154 161 181 183 119 155 209 122 122 214 226 165 172 178 194 207 202 202 198 191 188 187 188 191 193 192 192 195 197 199 201 200 203 206 209 214 216 215 216 218 222 227 232 238 241 241 241 239 238 238 238 238 238 238 241 246 252 257 261 263 264 263 262 260 259 259 258 258 259 261 261 260 258 257 256 257 254 250 247 245 248 249 250 252 252 254 256 250 246 246 246
224 215 165 80 126 168 142 154 165 123 118 182 201 169 119 229 216 151 173 191 200 206 203 200 199 192 190 188 188 190 190 191 192 192 193 197 200 201 202 204 208 213 214 215 218 217 217 222 228 232 236 237 240 243 245 250 253 253 253 251 254 258 261 264 266 266 267 266 265 263 262 261 260 260 260 260 259 257 256 257 257 256 255 252 248 245 245 246 248 250 252 253 253 250 246 243 243
209 137 54 26 11 -0 39 96 108 100 263 223 194 173 130 161 218 185 192 201 194 188 189 199 199 194 192 189 187 186 181 184 188 189 193 198 202 204 204 207 211 212 211 211 211 214 218 225 230 230 232 232 235 241 245 252 256 256 256 256 258 259 261 264 266 267 268 266 265 265 263 262 261 259 259 258 257 256 256 257 256 253 252 250 248 245 244 245 247 248 249 250 249 249 247 244 242
114 83 68 34 354 6 19 357 43 118 259 258 186 169 146 161 220 212 209 208 183 177 180 187 189 191 191 187 185 184 177 174 177 182 189 193 198 206 209 211 209 204 205 209 211 219 225 229 230 228 229 232 237 245 249 252 253 252 253 253 255 258 261 263 264 267 269 267 266 267 266 263 260 258 257 256 256 256 256 255 252 249 247 247 246 244 244 246 247 246 245 245 247 248 249 247 243
67 69 70 64 336 354 18 275 259 184 254 269 162 156 161 213 230 207 203 200 178 181 181 176 178 182 184 183 179 178 173 167 172 179 181 186 189 202 213 213 202 198 207 215 217 225 231 229 225 224 230 237 244 252 255 255 252 250 252 253 256 260 264 266 267 268 269 268 267 266 266 263 259 257 256 255 257 257 255 253 250 247 245 244 243 243 245 247 247 244 242 244 246 247 249 250 247
69 105 110 100 134 89 238 250 259 223 271 299 124 126 137 282 289 209 191 183 175 176 172 168 172 174 174 176 170 169 172 167 174 179 176 188 193 195 208 209 202 203 212 218 221 230 237 238 234 233 243 251 257 267 268 259 251 250 252 255 260 265 268 271 270 270 271 269 266 265 264 263 260 258 257 257 259 257 254 251 250 248 245 243 243 244 246 247 246 244 243 244 245 246 247 249 249
187 187 134 126 163 156 192 210 159 214 262 322 29 72 106 226 291 258 173 151 150 155 158 161 162 164 164 161 158 165 174 172 174 180 178 185 186 185 195 197 198 206 218 229 237 247 252 256 254 256 265 266 270 289 293 275 260 255 255 259 267 273 276 277 275 274 273 271 270 267 265 263 260 259 260 260 260 257 254 252 250 249 248 246 246 246 247 246 245 244 244 243 243 245 245 246 249
265 174 85 102 192 149 155 187 177 187 212 349 2 29 235 204 314 339 117 125 139 143 142 150 152 155 156 155 159 164 172 173 170 174 175 174 173 170 174 184 194 204 222 227 214 219 233 246 264 295 325 326 318 316 314 311 294 279 277 283 291 294 292 288 284 282 279 276 275 271 268 266 262 260 260 260 261 259 257 255 252 251 250 250 250 248 247 246 244 242 243 242 241 241 242 243 247
257 60 105 244 185 133 118 259 290 76 90 340 6 111 305 338 352 -0 103 123 134 134 140 156 157 158 161 162 165 166 168 170 165 162 163 170 175 170 172 189 199 156 116 112 111 112 110 95 77 50 30 13 354 339 328 324 318 311 308 307 307 306 303 298 294 292 290 286 283 280 279 277 273 269 265 263 263 261 259 257 255 253 251 251 251 249 247 244 242 240 239 239 239 239 240 242 246
126 156 211 247 64 100 100 103 354 33 90 275 14 144 176 150 357 331 116 127 136 143 151 158 159 165 172 173 174 171 164 159 156 157 167 181 184 180 173 165 141 120 111 105 103 100 92 79 64 49 35 19 3 348 335 327 323 319 316 313 309 305 301 297 295 296 297 296 293 292 289 285 282 277 271 271 268 263 260 258 255 254 252 250 250 249 247 243 240 238 238 238 239 239 239 242 245
134 183 188 102 67 326 356 99 172 33 124 301 10 8 190 162 177 186 159 151 156 161 157 157 169 178 178 175 173 167 153 149 152 153 166 170 143 129 115 105 103 106 102 96 95 86 70 55 37 24 9 356 344 335 328 323 320 318 317 315 311 306 301 297 296 297 299 298 296 294 291 287 286 282 278 277 271 263 260 258 256 255 253 250 248 246 244 242 238 236 236 237 238 238 238 240 241
39 47 21 55 141 169 213 173 156 136 164 135 53 329 272 222 205 186 181 175 165 165 167 170 177 178 172 167 163 158 149 147 144 131 120 108 105 105 107 104 98 94 90 85 77 58 41 23 7 355 344 337 332 327 323 319 317 317 316 314 311 307 303 300 298 298 298 297 296 294 292 289 288 286 284 279 269 262 260 259 258 257 255 253 251 246 242 239 237 235 235 235 236 236 235 236 238
58 50 22 2 22 112 137 6 80 121 125 132 138 250 262 251 218 183 186 185 173 170 174 181 181 163 158 157 147 142 139 135 131 125 117 108 108 108 105 101 96 92 82 64 45 26 11 355 343 337 330 326 323 320 317 314 315 315 312 310 308 306 303 300 298 297 296 296 296 294 293 292 290 288 284 279 273 269 266 262 257 254 253 253 252 249 245 239 234 233 233 234 235 235 236 237 237
133 134 167 157 97 84 100 345 317 87 118 139 145 193 259 261 216 183 186 183 180 173 166 175 171 148 145 147 140 137 133 130 133 135 128 114 111 109 101 93 88 82 68 49 22 353 341 331 322 316 312 311 310 308 305 305 308 307 306 305 304 304 302 299 296 294 294 294 295 295 294 294 293 291 287 283 280 278 274 268 261 257 255 253 252 253 253 249 242 236 233 234 235 235 236 237 237
Height
769 772 772 775 775 778 783 784 800 805 805 816 812 812 807 796 795 794 797 796 796 793 785 784 785 786 791 794 793 791 790 795 799 811 815 794 787 794 795 799 801 805 808 810 812 814 815 816 817 818 819 820 821 821 822 823 823 824 825 825 826 827 827 827 828 828 828 829 829 829 829 829 829 829 829 828 828 828 827 827 827 826 826 826 826 825 825 824 824 823 823 823 822 822 822 822 822
769 771 772 776 776 781 786 785 804 813 813 822 813 811 805 795 796 794 794 792 790 786 782 782 786 789 786 784 787 790 791 789 787 791 793 788 792 796 797 799 801 804 807 810 812 813 815 816 817 818 819 820 821 822 822 823 824 825 825 826 826 827 827 828 828 828 829 829 830 830 830 830 830 830 829 829 828 828 828 827 827 827 827 826 826 825 825 825 824 824 823 823 823 823 822 822 822
769 771 771 776 778 781 786 789 807 816 819 822 816 810 804 802 799 792 788 785 781 779 782 786 794 795 789 792 792 794 794 788 784 786 789 791 791 795 799 799 802 805 807 809 811 813 814 815 817 818 819 820 821 822 823 824 824 825 826 826 827 827 828 828 829 829 829 830 830 830 830 830 830 830 830 829 829 829 828 828 827 827 827 827 826 826 825 825 824 824 824 823 823 823 822 822 822
769 770 771 773 780 785 790 799 807 811 816 817 818 812 805 807 801 795 787 781 779 778 784 788 795 789 787 798 793 790 794 789 785 784 787 791 789 793 797 799 803 805 807 809 811 813 814 816 816 818 819 820 821 822 823 824 824 825 826 827 827 828 828 829 829 829 829 829 830 830 830 830 830 830 830 829 829 828 828 828 827 827 827 827 826 826 825 825 825 824 824 824 823 823 823 822 822
769 771 771 772 782 787 790 800 802 807 813 810 813 809 803 804 800 797 790 784 780 779 781 784 791 783 783 791 785 788 790 787 786 784 785 789 790 792 796 800 803 805 808 809 811 813 814 816 817 818 819 820 821 822 823 824 824 825 826 826 827 828 828 829 829 829 829 829 829 830 830 830 830 830 830 829 829 828 828 828 827 827 827 827 826 826 826 825 825 825 825 824 824 823 823 822 822
768 770 770 771 778 780 789 803 806 809 805 800 807 804 798 796 795 793 790 788 779 777 776 778 784 782 787 784 779 783 782 783 785 784 784 787 791 792 796 799 802 805 807 809 811 813 814 816 817 818 819 820 821 822 823 824 824 825 826 826 827 827 828 828 829 829 829 829 829 830 830 830 829 829 829 829 828 828 828 827 827 827 827 827 826 826 825 826 825 825 825 824 824 823 823 823 822
767 771 773 777 780 779 796 809 808 809 801 798 805 803 799 796 794 790 791 794 782 775 773 774 774 780 791 784 782 781 776 779 779 783 785 787 791 793 796 799 802 805 807 809 811 813 815 816 817 818 819 820 821 822 823 823 824 825 825 826 826 827 827 828 828 829 829 829 829 829 829 829 829 829 829 828 828 828 828 827 827 827 826 826 826 826 825 826 825 825 825 824 824 824 823 823 822
767 772 775 783 789 788 801 807 804 807 803 800 800 800 798 795 794 790 791 797 788 777 775 774 770 784 793 783 788 784 777 781 779 783 785 787 792 793 797 799 802 804 807 809 810 813 815 817 817 818 819 820 821 822 823 823 824 824 825 825 826 827 827 828 828 829 829 829 829 829 829 829 829 828 828 828 828 827 827 827 827 826 826 826 826 826 825 825 825 825 825 824 824 824 823 823 822
766 772 777 785 794 797 803 806 805 805 804 799 796 795 792 789 792 793 791 792 786 777 777 775 771 786 793 786 791 784 778 783 783 786 786 790 792 794 798 799 802 803 807 808 810 813 815 817 817 818 819 820 821 822 823 823 824 824 825 825 826 826 827 828 828 829 829 829 829 829 828 828 828 828 828 828 828 827 827 827 826 826 826 826 826 826 825 825 825 824 824 824 824 824 823 823 822
769 773 779 787 795 805 808 806 808 808 805 798 794 792 789 786 788 793 790 786 781 777 776 772 773 784 791 792 792 784 782 783 785 790 790 792 793 796 798 799 801 802 806 808 810 812 815 817 818 819 819 820 821 822 823 823 824 824 825 826 826 826 827 827 828 828 829 829 829 828 828 828 828 827 828 827 827 827 826 826 826 826 825 825 825 825 825 824 824 824 824 824 824 823 823 822 822
776 776 778 790 800 809 810 808 812 812 805 797 794 790 787 785 786 789 787 784 778 777 776 773 781 785 788 793 791 784 782 784 787 790 792 794 796 797 798 800 802 803 805 807 810 812 814 817 818 819 819 820 821 822 823 823 824 824 825 825 826 826 826 827 827 828 828 829 828 828 828 827 827 827 827 827 827 826 826 826 825 825 825 824 824 824 824 824 824 823 823 823 823 823 822 821 821
781 782 781 797 806 808 806 810 815 810 802 797 795 788 784 783 786 787 786 786 778 779 777 775 782 782 791 797 790 784 783 787 789 791 794 795 797 798 799 801 803 804 806 807 809 812 814 817 818 819 819 820 821 822 823 823 824 824 825 825 825 826 826 827 827 827 827 828 827 827 827 827 827 826 826 826 826 826 825 825 825 824 824 824 823 823 823 823 823 822 822 822 822 822 821 821 821
780 783 786 801 804 803 804 809 811 805 801 797 794 787 783 783 786 786 786 785 780 783 780 773 774 777 793 797 788 786 785 787 789 792 794 795 798 800 802 803 805 806 807 808 809 811 814 816 818 819 819 820 821 822 823 823 824 824 825 825 825 826 826 826 826 827 826 827 827 826 826 826 826 826 826 825 825 825 825 825 824 824 823 823 823 823 822 822 822 822 822 822 822 821 821 820 820
773 777 786 802 802 800 802 805 804 801 800 795 791 786 783 784 783 782 783 786 783 782 776 767 769 780 793 795 794 790 786 787 789 792 793 796 799 800 803 804 806 807 808 809 810 812 813 815 817 818 819 820 821 822 823 823 824 824 825 824 825 825 825 826 826 826 826 826 826 826 826 826 826 825 825 825 825 824 824 824 823 823 823 822 822 822 822 821 821 821 821 821 821 820 820 820 819
769 774 783 799 801 800 800 799 798 798 796 791 789 785 784 784 781 781 782 787 785 773 770 768 767 782 793 794 797 789 784 787 789 792 794 796 799 801 804 805 807 808 810 810 810 812 813 815 816 817 819 819 820 821 822 823 824 824 824 824 824 824 825 825 825 825 825 825 825 825 825 825 825 825 825 824 824 824 824 823 823 823 822 822 822 821 821 821 820 820 820 820 820 820 819 819 818
764 771 784 797 801 803 799 797 800 800 794 789 787 784 787 785 780 783 780 780 783 771 770 774 769 777 785 786 787 782 783 787 789 792 794 797 800 803 805 806 809 809 811 811 812 812 813 814 815 816 818 818 820 820 821 822 823 823 823 823 823 824 824 824 825 825 825 825 825 825 824 824 824 824 824 824 823 823 823 823 822 822 822 821 821 821 820 820 819 819 819 819 819 819 818 818 818
762 773 787 795 799 800 795 796 798 795 791 788 787 785 789 789 782 781 775 775 782 777 774 775 770 771 777 779 780 779 783 787 789 792 794 799 801 804 806 807 809 810 812 812 812 813 813 814 814 815 816 818 819 819 820 821 822 823 823 823 823 824 824 824 824 824 824 824 824 824 824 824 824 824 823 823 823 822 822 822 822 821 821 821 820 820 819 819 819 818 818 818 818 818 818 817 817
770 783 791 794 796 792 786 787 786 784 786 787 787 786 788 791 787 781 779 781 782 780 778 775 772 770 772 775 777 780 783 786 789 792 794 798 800 803 806 807 808 809 811 812 812 812 813 813 813 814 815 816 818 818 819 820 821 821 822 822 822 823 823 824 824 824 824 823 824 823 823 823 823 823 822 822 822 822 821 821 821 821 820 820 820 819 819 819 818 818 818 818 817 817 817 816 816
775 784 790 791 788 782 775 776 777 778 782 784 785 784 784 787 786 782 787 791 785 786 784 779 778 775 773 775 777 779 782 785 788 790 793 796 798 801 803 806 807 808 809 810 811 811 812 812 813 813 814 815 816 817 818 818 819 820 821 821 821 822 823 823 823 823 823 823 823 823 823 822 822 822 821 821 821 821 821 821 820 820 820 819 819 819 818 818 818 817 817 817 817 817 816 816 815
773 779 790 787 777 776 772 771 773 774 777 783 785 783 784 784 782 783 789 793 789 790 788 783 784 781 777 776 776 778 780 784 787 789 792 794 796 798 801 803 804 806 806 807 809 810 811 811 812 813 813 815 816 816 817 818 818 819 820 820 820 821 822 822 822 822 822 823 822 822 822 822 822 821 821 821 820 820 820 820 820 819 819 819 819 818 818 817 817 817 816 816 816 816 816 815 815
771 775 784 779 771 776 773 769 770 771 774 780 783 783 786 784 781 784 787 794 796 790 784 781 783 781 778 777 776 778 780 783 786 789 791 792 794 796 798 800 801 802 804 806 807 808 809 810 811 812 813 814 815 816 816 817 817 818 819 819 820 820 821 821 821 822 822 822 821 821 821 821 821 820 820 820 819 819 819 819 819 819 819 818 818 818 817 817 816 816 816 815 815 815 814 814 814
770 771 770 769 769 775 772 768 769 770 774 779 783 785 785 782 783 785 786 793 794 785 779 776 776 777 777 776 776 777 779 782 784 787 789 791 792 795 797 798 800 801 803 804 805 806 808 809 810 811 813 813 814 815 815 816 817 817 818 818 819 819 820 820 820 821 820 821 821 821 820 820 820 819 819 819 818 818 818 818 818 818 818 817 817 817 817 816 816 815 815 815 814 814 813 813 813
771 770 764 765 765 769 771 768 769 770 774 780 782 780 779 785 787 783 784 786 782 775 774 772 772 774 775 776 777 778 778 780 782 784 787 788 790 792 795 797 799 800 801 802 803 805 806 807 809 810 811 812 813 814 815 816 816 816 817 817 818 818 818 819 819 819 820 820 820 820 819 819 818 818 818 818 817 817 817 817 817 817 817 817 816 816 816 815 815 814 814 814 814 813 812 812 812
770 772 765 765 763 765 768 767 769 769 772 776 775 776 780 787 786 782 783 779 774 772 771 771 771 772 774 776 778 779 779 778 780 783 784 786 788 789 791 794 796 798 799 801 802 803 805 806 808 809 810 811 812 813 814 815 815 816 816 817 817 817 817 817 818 818 819 819 819 819 819 818 818 817 817 816 816 816 816 816 816 816 816 816 815 815 815 815 814 814 814 813 813 813 812 811 811
769 770 765 764 764 764 766 767 770 770 770 771 772 778 781 780 779 782 783 777 772 771 771 772 773 774 775 777 778 779 780 779 780 781 783 784 785 787 789 791 793 796 798 799 800 801 803 805 806 808 808 809 811 812 813 814 814 815 815 815 816 816 816 816 817 817 817 818 818 818 818 817 817 816 816 815 815 815 815 815 815 815 815 815 815 815 814 814 814 813 813 813 812 812 812 811 811
764 763 764 765 767 766 768 770 772 772 771 771 776 781 780 774 776 783 781 775 773 771 774 775 775 777 777 778 778 778 779 780 781 781 782 783 784 786 787 789 791 793 795 796 797 799 801 803 805 806 807 808 809 810 811 812 813 813 813 814 814 815 815 815 815 815 816 816 816 816 816 816 816 815 815 815 815 814 814 814 814 814 814 814 814 814 813 813 813 813 812 812 812 811 811 811 811
753 759 762 764 767 766 769 773 772 773 771 771 777 783 780 773 778 789 781 772 773 774 778 777 777 780 778 778 778 777 778 779 780 781 782 783 783 784 786 787 789 790 793 794 794 796 798 800 802 803 805 806 807 808 810 811 811 812 812 812 813 813 813 814 814 814 814 814 814 815 815 814 815 814 814 814 814 813 813 813 813 813 813 813 813 812 812 812 812 812 812 811 811 810 810 810 810
750 757 765 768 768 769 770 773 774 774 773 770 772 780 781 778 782 786 778 772 773 777 781 780 780 781 779 779 778 777 777 777 779 780 780 782 782 783 784 785 786 788 789 791 791 793 795 797 798 800 802 804 805 806 807 809 810 810 811 811 811 811 812 812 812 813 812 812 813 813 813 813 813 813 813 813 812 812 812 812 812 812 812 811 811 811 811 811 811 811 811 810 810 810 809 809 809
754 757 771 779 773 776 775 772 773 773 773 768 770 788 792 786 785 779 773 772 774 778 782 781 781 781 780 780 779 779 777 777 777 778 779 780 781 782 784 784 784 785 786 787 789 790 792 793 795 797 799 801 802 803 805 806 807 808 809 810 810 810 811 811 811 811 811 811 811 811 811 811 811 811 811 811 811 811 810 810 810 810 810 810 810 810 810 810 810 810 809 809 809 809 808 808 808
760 761 772 783 785 786 776 769 772 771 771 763 771 801 804 789 782 775 771 773 776 781 783 782 782 781 781 780 780 780 778 777 776 776 778 777 779 780 781 783 784 784 785 787 787 788 789 790 792 794 797 798 799 801 802 803 805 806 807 808 809 809 809 810 809 810 810 810 810 809 809 809 809 809 809 809 809 809 809 809 809 808 808 808 808 808 808 808 808 808 808 808 808 807 807 807 807
765 771 776 784 794 793 774 769 773 773 771 761 773 803 804 788 782 774 770 772 777 783 782 781 782 781 781 780 781 781 778 777 776 775 776 776 777 778 779 780 782 783 784 785 785 785 787 788 790 792 793 795 796 798 799 800 802 802 804 805 806 807 807 808 807 808 808 808 808 808 808 807 807 807 807 807 807 807 807 807 807 806 806 806 806 806 807 807 807 807 806 806 806 806 806 805 805
768 781 791 790 792 791 777 769 771 774 772 764 776 802 802 789 782 773 770 772 775 780 781 780 781 781 781 781 780 781 778 776 775 774 774 774 775 776 776 777 779 780 781 783 784 784 785 786 788 788 790 792 793 794 796 797 798 799 800 802 803 804 805 805 805 805 806 806 806 806 806 805 805 805 805 805 805 805 805 805 805 805 805 805 805 805 805 805 805 805 805 805 805 805 805 804 804
773 779 794 794 790 793 786 774 767 769 773 771 778 796 800 788 780 773 770 772 774 778 780 779 780 779 779 780 778 779 778 776 774 773 773 773 773 774 775 775 776 778 778 780 781 782 784 784 786 786 787 788 789 791 793 794 795 796 797 798 800 801 802 802 802 803 803 804 804 803 803 803 803 803 803 803 803 803 803 803 803 803 803 803 803 803 803 803 803 803 803 803 803 803 803 803 803
782 779 788 789 786 791 790 780 770 767 775 779 779 788 791 783 777 775 770 770 774 777 779 779 779 778 778 778 778 777 777 776 773 771 771 771 771 772 773 773 774 775 776 776 777 779 780 782 783 784 784 785 787 788 789 791 792 793 795 796 797 798 799 800 800 801 801 801 801 801 801 801 801 800 801 801 801 801 801 801 801 802 802 801 801 801 801 802 801 801 801 801 801 801 801 802 801
782 782 785 788 784 788 788 780 771 769 777 782 784 787 786 782 778 775 771 769 774 776 777 778 777 778 778 777 778 777 777 775 771 769 769 770 771 771 771 772 772 772 773 774 775 776 778 779 780 782 783 783 785 785 787 789 790 792 793 794 795 796 796 797 798 798 798 799 799 799 799 799 799 799 799 799 799 799 799 799 800 800 800 800 799 799 800 800 799 799 800 800 799 799 799 800 800
768 770 775 784 785 786 781 771 763 765 778 784 784 785 784 784 781 776 772 770 773 776 775 777 778 777 777 778 778 777 777 774 768 767 768 769 771 771 770 771 772 771 772 772 774 776 777 777 778 780 781 782 783 784 786 788 790 791 792 793 794 794 794 795 795 795 796 796 797 797 797 797 797 797 797 797 797 797 797 797 798 798 798 798 798 797 798 798 798 798 798 798 798 798 798 798 798
756 764 770 776 782 783 772 765 760 759 776 785 779 781 783 783 780 774 773 773 775 777 778 778 778 778 778 778 777 776 776 772 767 767 768 769 770 770 770 770 771 771 771 772 773 774 775 776 777 778 779 780 781 783 785 787 788 789 790 791 791 791 792 793 793 793 794 794 794 795 795 795 795 795 795 795 795 795 795 796 796 796 797 796 796 796 796 797 796 797 797 797 797 797 796 796 796
751 763 771 776 779 775 763 760 760 756 771 781 776 781 784 780 779 774 772 776 777 775 777 777 776 777 776 776 777 775 773 770 768 768 767 768 768 768 768 769 769 770 770 772 773 773 774 775 776 776 778 779 779 780 782 783 784 785 786 786 787 789 789 790 790 791 792 792 792 793 793 793 793 793 793 793 794 794 794 794 794 794 795 795 795 794 794 795 795 795 796 796 795 795 795 795 795
746 759 771 778 773 769 763 759 759 759 768 779 778 782 785 779 777 775 772 773 772 769 770 771 772 775 776 775 775 774 774 772 769 768 766 766 766 766 767 767 768 769 770 770 771 772 773 774 775 776 777 777 778 779 780 781 782 783 784 785 786 787 788 788 788 789 790 790 790 791 791 791 791 791 791 792 792 793 793 793 793 793 793 793 793 793 793 793 793 793 794 794 794 794 794 793 794
743 755 769 775 766 768 772 764 762 762 764 773 778 783 785 781 779 777 772 769 768 767 766 766 768 770 771 770 771 772 773 772 770 767 765 765 765 766 766 767 767 768 769 770 770 771 772 773 774 775 776 777 777 778 779 780 781 782 784 785 785 786 786 787 787 787 788 788 788 788 788 789 789 789 789 790 790 791 791 791 791 791 791 792 792 792 791 791 791 791 791 792 792 792 792 792 793
744 748 759 766 760 761 764 760 762 765 766 768 776 792 794 786 788 785 775 772 771 769 769 769 768 767 767 768 768 769 769 769 769 768 765 764 764 765 765 766 766 767 768 768 769 770 770 772 773 774 775 776 777 778 779 780 781 782 783 784 785 785 785 785 785 785 785 786 786 785 786 786 787 787 787 788 788 788 789 789 789 790 790 790 790 790 790 789 789 789 789 790 790 790 790 791 791
750 745 744 749 750 753 755 757 765 778 785 772 771 802 810 790 789 789 780 779 777 772 772 773 771 768 769 770 770 768 767 767 767 766 765 764 763 764 764 765 766 766 766 767 768 769 770 771 772 773 774 775 776 777 778 779 780 781 782 782 783 783 783 783 782 782 783 783 783 783 784 784 784 785 785 786 786 786 786 787 787 787 787 788 788 788 788 788 787 787 787 788 788 788 789 789 789
758 741 731 736 741 749 755 758 767 781 787 768 759 791 811 797 790 788 782 783 781 775 774 773 771 770 769 769 769 768 767 766 765 765 764 763 763 763 764 764 764 765 765 766 767 767 768 769 770 771 773 774 775 776 777 778 779 780 780 781 781 781 781 780 780 781 781 781 781 782 782 782 782 782 783 783 784 784 784 784 784 785 785 785 786 786 786 786 786 785 785 786 786 786 787 787 787
755 731 724 734 738 746 753 757 763 767 768 767 762 774 799 803 791 784 782 785 785 778 776 774 770 770 768 766 766 765 765 765 765 765 764 762 762 762 763 763 763 764 764 765 766 766 767 768 769 770 771 772 773 774 775 776 777 777 778 779 779 778 778 778 778 779 779 779 779 779 779 780 780 780 781 781 781 781 781 781 781 782 782 783 783 783 783 783 784 784 784 784 784 784 785 785 785
740 722 722 728 729 736 744 752 760 759 765 782 777 769 794 807 789 781 784 787 789 782 776 774 770 768 766 765 764 762 761 761 762 763 763 761 761 761 761 762 763 763 764 764 765 766 766 767 768 768 769 770 771 772 773 773 774 775 775 776 776 776 775 776 776 776 776 776 776 776 776 777 777 778 778 778 778 778 778 778 779 779 779 779 780 780 781 781 781 782 782 782 782 782 782 783 783
724 716 721 724 727 731 735 747 756 760 772 786 780 770 792 808 792 787 793 790 785 778 772 771 768 766 765 763 762 761 760 760 760 760 760 760 760 760 761 761 762 763 763 764 764 765 765 766 766 767 767 768 769 770 771 771 772 772 772 773 773 773 773 774 774 774 774 774 773 773 773 774 774 774 774 775 775 775 776 776 776 776 776 776 777 777 778 778 778 779 779 779 779 780 780 780 780
716 719 727 730 735 735 739 746 750 767 779 772 769 767 779 803 799 787 784 774 767 769 771 770 766 765 765 761 760 760 760 760 759 760 759 759 759 760 761 761 761 762 762 763 763 763 764 764 765 765 765 766 767 768 768 769 769 769 770 770 770 771 772 772 772 771 771 772 771 771 771 771 771 771 771 771 772 772 773 773 773 773 773 773 774 774 775 775 775 776 776 777 777 777 778 778 778
718 728 737 746 753 750 755 757 757 782 786 760 757 761 767 793 794 775 766 756 753 761 766 766 766 766 764 761 759 758 758 759 759 760 759 759 760 760 760 761 761 761 762 762 762 762 763 763 763 763 764 765 765 766 766 766 767 767 767 768 768 769 770 770 770 769 769 769 769 769 769 769 768 768 768 768 768 769 769 769 769 770 770 770 770 771 772 772 772 773 773 774 774 774 775 776 776
725 735 745 762 775 776 782 781 777 787 777 753 754 760 767 780 771 757 757 754 752 754 755 758 761 762 762 759 759 757 757 758 759 759 759 759 759 759 759 760 760 760 760 761 761 761 762 762 762 762 762 763 764 764 764 764 765 765 766 767 767 768 768 768 768 767 767 767 767 766 766 766 766 765 765 764 764 765 765 765 765 766 766 766 767 768 768 769 770 770 770 770 771 771 772 773 773
733 740 750 768 783 793 800 794 787 786 770 753 751 757 773 778 759 749 750 749 748 748 749 753 754 756 758 757 757 757 757 757 758 758 758 758 758 758 758 758 759 759 759 760 760 760 760 760 761 761 761 762 762 763 763 763 763 764 765 766 766 766 766 766 766 765 765 764 764 764 763 763 762 762 761 761 760 761 761 762 762 762 762 763 763 764 765 766 767 767 767 767 767 768 769 770 770
734 732 741 760 768 780 792 787 787 785 770 761 760 767 783 782 762 748 743 743 745 747 749 751 752 753 755 756 757 757 757 757 757 757 757 756 756 756 757 757 758 758 758 759 759 759 759 759 760 760 761 761 761 762 762 762 763 763 764 765 765 765 765 764 764 763 762 762 762 761 760 759 759 758 757 757 757 758 758 758 758 758 758 759 760 760 761 762 763 763 763 763 764 765 766 766 767
736 727 740 754 749 755 769 771 770 769 771 778 779 781 780 769 756 746 742 745 747 748 751 753 755 755 755 757 758 757 757 756 756 757 756 756 755 756 756 757 757 757 757 758 759 759 759 759 759 759 759 760 760 760 761 761 761 762 762 763 763 763 763 762 761 761 760 760 759 758 757 756 756 755 754 754 754 755 755 755 754 754 755 755 756 756 757 758 759 759 760 760 760 761 762 762 763
736 736 745 741 729 737 757 767 761 761 780 792 787 786 779 767 763 754 748 752 753 753 755 755 757 756 756 758 758 756 757 756 756 756 755 756 755 755 756 756 757 757 757 758 759 760 759 759 759 759 759 760 760 760 760 760 760 760 760 760 761 761 761 760 760 759 759 758 757 756 755 754 754 753 753 752 752 752 751 751 751 751 751 752 752 752 753 754 755 755 755 756 756 757 759 759 760
732 744 738 726 725 733 747 766 772 773 789 795 788 790 787 782 780 766 757 761 760 758 757 757 757 757 757 758 757 756 755 755 756 754 754 755 754 754 755 755 756 757 758 758 759 759 759 759 759 759 760 760 760 760 759 759 759 758 759 758 759 759 759 759 758 757 756 755 755 754 752 751 751 750 750 750 749 749 749 748 748 748 748 748 748 749 749 749 750 751 751 752 752 754 755 756 756
716 725 719 726 747 753 751 766 779 783 793 799 797 793 787 785 782 770 766 766 763 760 758 758 759 757 757 757 756 756 755 755 755 754 755 754 754 755 755 756 757 757 758 758 758 759 758 759 759 759 759 759 759 759 759 759 758 758 758 758 758 758 757 756 755 754 753 752 751 750 749 748 747 747 746 746 745 746 746 745 745 745 744 744 745 745 745 746 746 747 747 748 749 750 752 752 753
710 716 718 727 743 753 755 760 768 777 789 802 807 801 789 778 769 765 765 761 758 760 759 758 757 756 756 756 756 756 756 756 755 755 756 755 755 755 755 756 757 757 758 758 758 758 758 758 758 758 759 758 758 758 758 758 757 757 757 756 756 755 755 754 753 752 750 749 748 747 746 745 744 743 743 742 742 742 742 742 742 742 741 741 741 741 741 741 742 742 743 744 745 747 748 748 749
725 732 737 737 737 743 750 754 758 766 781 797 809 808 790 766 755 758 759 756 754 755 756 756 755 754 755 755 755 756 756 756 756 756 756 755 755 756 756 757 757 757 758 757 757 758 757 757 758 757 758 757 757 757 756 756 755 755 755 754 754 753 752 751 750 749 748 746 745 744 743 742 741 740 740 739 739 738 738 737 737 737 736 736 737 738 738 738 738 738 739 740 741 743 744 744 745
723 733 739 739 740 746 759 768 763 758 769 782 793 802 788 757 747 750 751 752 751 750 752 755 754 754 756 755 755 755 755 756 757 756 756 756 756 756 756 757 757 757 757 757 757 757 757 757 757 757 757 757 757 756 755 754 753 753 753 752 751 750 749 748 747 746 745 744 743 741 740 740 738 737 737 736 736 735 734 733 732 732 732 732 733 735 736 736 736 736 736 737 738 739 740 740 741